Location: Unspecified
(49.2170°N, 0.0000°E)
Time: 01:50:02
(UTC+00:00)

Transit 4A - Pass Details

Date: 22 June 2019
Orbit: 863 x 981 km, 66.8° (Epoch: 18 August)

Event Time Altitude Azimuth Distance (km) Brightness Sun altitude
Rises 14:25:50 0° 320° (NW) 3,695 11.1 51.8°
Reaches altitude 10° 14:28:57 10° 334° (NNW) 2,744 10.5 51.4°
Maximum altitude 14:34:09 25° 28° (NNE) 1,869 9.5 50.6°
Drops below altitude 10° 14:39:16 10° 82° (E) 2,710 10.1 49.9°
Sets 14:42:19 0° 96° (E) 3,638 10.7 49.4°
